AirNav   Everest Fuels
 
 743 users online  

KCKZ Pennridge Airport
Perkasie, Pennsylvania, USA

GOING TO PERKASIE?


FAA INFORMATION EFFECTIVE 03 NOVEMBER 2022

Location

FAA Identifier: CKZ
Lat/Long: 40-23-21.1000N 075-17-25.7000W
40-23.351667N 075-17.428333W
40.3891944,-75.2904722
(estimated)
Elevation: 567.6 ft. / 173.0 m (surveyed)
Variation: 12W (2005)
From city: 1 mile N of PERKASIE, PA
Time zone: UTC -5 (UTC -4 during Daylight Saving Time)
Zip code: 18944

Airport Operations

Airport use: Open to the public
Activation date: 04/1969
Control tower: no
ARTCC: NEW YORK CENTER
FSS: WILLIAMSPORT FLIGHT SERVICE STATION
NOTAMs facility: IPT (NOTAM-D service available)
Attendance: 0800-1600
Pattern altitude: TPA FOR LIGHT ACFT 800 FT AGL; TPA FOR TURBO PROP & JETS 1200 FT AGL.
Wind indicator: lighted
Segmented circle: no
Lights: ACTIVATE PAPI RY 08/26; MIRL RY 08/26 - CTAF.
Beacon: white-green (lighted land airport)
Operates sunset to sunrise.

Airport Communications

CTAF/UNICOM: 123.0
WX AWOS-3: 126.325 (215-257-7291)
PHILADELPHIA APPROACH: 123.8
PHILADELPHIA DEPARTURE: 123.8
CLEARANCE DELIVERY: 118.55
WX AWOS-3 at UKT (5 nm NW): 119.475 (215-538-7610)
WX ASOS at DYL (8 nm SE): 118.875 (215-345-0392)
WX AWOS-3 at XLL (14 nm NW): 127.875 (610-231-3111)
WX ASOS at PTW (15 nm SW): 119.425 (610-495-0823)
WX AWOS-3 at LOM (15 nm S): 118.925 (215-646-1068)
WX ASOS at ABE (17 nm NW): 126.975 (610-264-1765)
WX AWOS-3 at N40 (18 nm NE): 121.725
  • CLEARANCE DELIVERY PHILADELPHIA APCH TF 800-354-9884.

Nearby radio navigation aids

VOR radial/distance  VOR name  Freq  Var
PTWr060/15.9POTTSTOWN VORTAC116.5009W
ARDr305/19.3YARDLEY VOR/DME108.2010W
ETXr132/21.3EAST TEXAS VOR/DME110.2009W
FJCr170/21.6ALLENTOWN VORTAC117.5010W
SBJr255/27.6SOLBERG VOR/DME112.9010W
BWZr232/32.5BROADWAY VOR/DME114.2011W
MXEr041/33.2MODENA VORTAC113.2009W
RBVr297/38.1ROBBINSVILLE VORTAC113.8010W
GXUr318/39.1MC GUIRE VORTAC110.6012W

Airport Services

Fuel available: 100LL JET-A
Parking: hangars and tiedowns
Airframe service: MAJOR
Powerplant service: MAJOR
Bottled oxygen: NONE
Bulk oxygen: NONE

Runway Information

Runway 8/26

Dimensions: 4211 x 100 ft. / 1284 x 30 m
Surface: asphalt/porous friction courses, in good condition
Weight bearing capacity: 
Double wheel: 26.0
Runway edge lights: medium intensity
Operational restrictions: RY 08/26 CLSD TO TOUCH & GO LDGS.
RUNWAY 8  RUNWAY 26
Latitude: 40-23.230958N40-23.471240N
Longitude: 075-17.853907W075-17.003272W
Elevation: 519.8 ft.567.6 ft.
Traffic pattern: leftleft
Runway heading: 082 magnetic, 070 true262 magnetic, 250 true
Displaced threshold: 266 ft.351 ft.
Markings: nonprecision, in good conditionnonprecision, in good condition
Visual slope indicator: 2-light PAPI on left (3.78 degrees glide path)2-light PAPI on left (4.00 degrees glide path)
Runway end identifier lights: nono
Touchdown point: yes, no lightsyes, no lights
Obstructions: 17 ft. trees, 241 ft. from runway, 46 ft. right of centerline, 2:1 slope to clear
APCH RATIO 29:1 TO DTHR.
76 ft. trees, 792 ft. from runway, 336 ft. left of centerline, 7:1 slope to clear
10 FT BLAST FENCE AT RWY END. 45 FT TREES, 17 FT FM RWY END, 195 FT RIGHT.

Airport Ownership and Management from official FAA records

Ownership: Privately-owned
Owner: PENNRIDGE DEVELOPMENT ENT INC
1100 RIDGE ROAD
PERKASIE, PA 18944
Phone 215-257-0166
Manager: JEAN CURRY
1100 N RIDGE ROAD
PERKASIE, PA 18944
Phone 267-718-4254

Airport Operational Statistics

Aircraft based on the field: 42
Single engine airplanes: 37
Multi engine airplanes: 3
Jet airplanes: 2
    
Aircraft operations: avg 60/day *
68% local general aviation
32% transient general aviation
<1% military
* for 12-month period ending 12 July 2022

Additional Remarks

OCCASIONAL DEER AND WILD TURKEYS INVOF RWY.
SKYDIVING ACT DLY DAWN TO DUSK.
FOR CD CTC PHILADELPHIA APCH AT 800-354-9884.
FOR SVC AFT HRS CALL AMGR.

Instrument Procedures

NOTE: All procedures below are presented as PDF files. If you need a reader for these files, you should download the free Adobe Reader.

NOT FOR NAVIGATION. Please procure official charts for flight.
FAA instrument procedures published for use from 03 November 2022 at 0901Z to 01 December 2022 at 0900Z.

 
IAPs - Instrument Approach Procedures
RNAV (GPS) RWY 08   download (177KB)
RNAV (GPS) RWY 26   download (166KB)
NOTE: Special Take-Off Minimums/Departure Procedures apply   download (488KB)

Other nearby airports with instrument procedures:

KUKT - Quakertown Airport (5 nm NW)
KDYL - Doylestown Airport (8 nm SE)
KXLL - Allentown Queen City Municipal Airport (14 nm NW)
KPTW - Heritage Field Airport (15 nm SW)
KLOM - Wings Field Airport (15 nm S)
N85 - Alexandria Airport (17 nm NE)
KABE - Lehigh Valley International Airport (17 nm NW)
N40 - Sky Manor Airport (18 nm NE)
N47 - Pottstown Municipal Airport (19 nm SW)
 
Loc | Ops | Rwys | IFR | FBO | Links
Com | Nav | Svcs | Stats | Notes
Area around KCKZ (Pennridge Airport)
 
Road maps at: MapQuest Bing Google
 
Aerial photo
WARNING: Photo may not be current or correct
Aerial photo of KCKZ (Pennridge Airport)
Photo by Ed Figuli
Photo taken 25-Jul-2020
looking west at 1000 feet above the ground.

Do you have a better or more recent aerial photo of Pennridge Airport that you would like to share? If so, please send us your photo.

 
Sectional chart

 
Airport distance calculator
Flying to Pennridge Airport? Find the distance to fly.

From to KCKZ

Sunrise and sunset
Times for 30-Nov-2022
 Local
(UTC-5)
 Zulu
(UTC)
Morning civil twilight06:3511:35
Sunrise07:0512:05
Sunset16:3521:35
Evening civil twilight17:0522:05

Current date and time
Zulu (UTC)  30-Nov-2022 12:23:26
Local (UTC-5)  30-Nov-2022 07:23:26
 
METAR
KCKZ 301155Z AUTO 12004KT 10SM OVC038 05/03 A3005 RMK AO2
KUKT 
5nm NW 
301155Z AUTO 14007KT 10SM OVC037 06/03 A3004 RMK A01
KDYL 
9nm SE 
301154Z AUTO 00000KT 10SM OVC038 05/01 A3005 RMK AO2 SLP182 T00500006 10050 20028 58027 $
KXLL 
14nm NW 
301155Z AUTO 00000KT 10SM -RA OVC036 05/02 A3005 RMK AO2
KLOM 
15nm S 
301155Z AUTO 11006KT 10SM OVC037 06/03 A3005 RMK AO2 T00630031 10064 20018
KABE 
17nm NW 
301151Z AUTO 12005KT 10SM -RA OVC037 05/01 A3004 RMK AO2 RAB38 SLP176 P0000 60000 T00500011 10056 20028 58023
TAF
KABE 
17nm NW 
301120Z 3012/0112 13009KT P6SM VCSH OVC030 WS020/17035KT FM301400 14012G22KT 6SM -SHRA BR OVC015 WS020/17035KT FM301700 19020G30KT 6SM -SHRA BR OVC010 FM302000 22019G38KT 6SM -SHRA BR OVC008 FM302100 26018G36KT 6SM -SHRA BR OVC030 FM302200 27018G36KT P6SM BKN070
NOTAMs
Click for the latest NOTAMs
NOTAMs are issued by the DoD/FAA and will open in a separate window not controlled by AirNav.

 

 
 

FBO, Fuel Providers, and Aircraft Ground Support

  
 Business Name 
 
 Contact 
 
 Services / Description 
 
Fuel Prices
 
Comments
  
Pennridge Airport 215-257-0166
no information available

If you are affiliated with Pennridge Airport and would like to show here your services, contact info, web link, logo, and more, click here
100LL Jet A
FS $6.73 $7.37 
SS $6.63 --- 
 Updated 21-Nov-2022
 
   write
FS=Full service
SS=Self service
Update Fuel Prices
 

Would you like to see your business listed on this page?

 If your business provides an interesting product or service to pilots, flight crews, aircraft, or users of the Pennridge Airport, you should consider listing it here.  To start the listing process, click on the button below
 
Add a business
 

Other Pages about Pennridge Airport

www.pennridgeairport.com
 
Update a link
 
Copyright © AirNav, LLC. All rights reserved. Privacy Policy  Contact